Seward, AK

6:02 PM AKST on November 21, 2017 (GMT -0900)
Seward

Weather History for PAWD - October, 2011

Change the Weather History Date:

Tuesday, October 4, 2011

  Actual Average Record
Temperature  
Mean Temperature 44 °F -  
Max Temperature 53 °F 49 °F 61 °F (1963)
Min Temperature 35 °F 37 °F 26 °F (1972)
Degree Days  
Heating Degree Days 21    
Moisture  
Dew Point 31 °F    
Average Humidity 65    
Maximum Humidity 85    
Minimum Humidity 41    
Precipitation  
Precipitation 0.00 in - - ()
Sea Level Pressure  
Sea Level Pressure 29.49 in    
Wind  
Wind Speed 11 mph (North)    
Max Wind Speed 15 mph    
Max Gust Speed 26 mph    
Visibility 10 miles    
Events      
Averages and records for this station are not official NWS values.
T = Trace of Precipitation, MM = Missing Value Source: NWS Daily Summary

Daily Weather History Graph

Daily Weather History Graph

Search for Another Location

Airport or City:

Trip Planner

Search our weather history database for the weather conditions in past years. The results will help you decide how hot, cold, wet, or windy it might be!

Date:

Astronomy

Oct. 04, 2011 Rise Set
Actual Time 8:10 AM AKDT 7:21 PM AKDT
Civil Twilight 7:28 AM AKDT 8:02 PM AKDT
Nautical Twilight 6:40 AM AKDT 8:51 PM AKDT
Astronomical Twilight 5:49 AM AKDT 9:41 PM AKDT
Moon 5:05 PM AKDT (10/4) No Moon Set
Length of Visible Light 12h 33m
Length of Day
11h 10m
First Quarter, 57% of the Moon is Illuminated
Oct 4
First Quarter
Oct 11
Full
Oct 19
Last Quarter
Oct 26
New
Nov 2
First Quarter

Hourly Weather History & Observations

Time (AKDT) Temp. Windchill Dew Point Humidity Pressure Visibility Wind Dir Wind Speed Gust Speed Precip Events Conditions
12:53 AM 37.9 °F 31.5 °F 32.0 °F 79% 29.48 in 10.0 mi NNE 9.2 mph - N/A   Clear
1:53 AM 37.9 °F 31.5 °F 30.9 °F 76% 29.49 in 10.0 mi NNE 9.2 mph 17.3 mph N/A   Clear
2:53 AM 36.0 °F 28.0 °F 30.9 °F 82% 29.49 in 10.0 mi North 11.5 mph - N/A   Clear
3:53 AM 35.1 °F 26.9 °F 30.9 °F 85% 29.49 in 10.0 mi North 11.5 mph - N/A   Clear
4:53 AM 35.1 °F 27.4 °F 30.9 °F 85% 29.49 in 10.0 mi NNE 10.4 mph - N/A   Clear
5:53 AM 35.1 °F 26.9 °F 30.9 °F 85% 29.48 in 10.0 mi NNE 11.5 mph - N/A   Clear
6:53 AM 37.0 °F 29.3 °F 30.9 °F 79% 29.48 in 10.0 mi NNE 11.5 mph - N/A   Scattered Clouds
7:53 AM 39.9 °F 33.4 °F 32.0 °F 73% 29.48 in 10.0 mi NNE 10.4 mph 19.6 mph N/A   Overcast
8:53 AM 39.0 °F 31.8 °F 32.0 °F 76% 29.47 in 10.0 mi NNE 11.5 mph 18.4 mph N/A   Partly Cloudy
9:53 AM 42.1 °F 34.9 °F 33.1 °F 70% 29.47 in 10.0 mi North 13.8 mph - N/A   Clear
10:53 AM 46.9 °F - 34.0 °F 61% 29.46 in 10.0 mi NNE 9.2 mph - N/A   Partly Cloudy
11:53 AM 48.9 °F - 34.0 °F 56% 29.48 in 10.0 mi North 12.7 mph - N/A   Overcast
12:53 PM 51.1 °F - 32.0 °F 48% 29.48 in 10.0 mi NW 15.0 mph 26.5 mph N/A   Scattered Clouds
2:53 PM 53.1 °F - 30.9 °F 43% 29.48 in 10.0 mi NW 12.7 mph 23.0 mph N/A   Partly Cloudy
3:53 PM 53.1 °F - 30.9 °F 43% 29.49 in 10.0 mi NW 13.8 mph 23.0 mph N/A   Scattered Clouds
4:53 PM 53.1 °F - 30.0 °F 41% 29.49 in 10.0 mi NNW 13.8 mph 19.6 mph N/A   Clear
5:53 PM 50.0 °F - 30.0 °F 46% 29.48 in 10.0 mi NNW 10.4 mph - N/A   Clear
6:53 PM 48.9 °F - 30.9 °F 50% 29.49 in 10.0 mi NNW 8.1 mph 16.1 mph N/A   Clear
7:53 PM 46.0 °F 40.6 °F 30.9 °F 56% 29.50 in 10.0 mi North 11.5 mph 16.1 mph N/A   Clear
8:53 PM 46.0 °F 41.4 °F 30.9 °F 56% 29.52 in 10.0 mi NNE 9.2 mph - N/A   Clear
9:53 PM 43.0 °F 37.2 °F 30.9 °F 62% 29.53 in 10.0 mi NNE 10.4 mph - N/A   Clear
11:53 PM 39.0 °F 32.3 °F 30.9 °F 73% 29.56 in 10.0 mi North 10.4 mph - N/A   Clear